Wind_Gust
21 21 20 19 18 18 18 17 17 16 15 15 15 14 13 13 13 13 14 14 15 15 15 15 14 14 14 14 14 12 14 6 3 2 3 13 8 7 7 8 9 7 6 3 4 6 5 6 10 9 8 9 7 4 8 5 6 5 6 12 11 15 12 10 9 14 17 23 14 12 17 33 25 18 25 27 34 33 26 29 24 24 19 16 16 16 13 11
22 21 21 21 20 20 18 18 18 17 16 17 16 15 14 13 12 13 14 14 15 16 15 14 15 14 14 13 14 13 11 4 3 3 18 6 7 8 7 9 9 7 5 4 4 4 6 8 6 10 7 6 4 7 3 8 5 8 5 6 15 11 12 9 8 17 21 16 17 14 10 19 19 16 16 38 23 26 32 26 18 24 17 15 14 12 12 10
22 22 21 22 21 20 19 19 19 18 18 17 16 15 14 13 12 12 14 14 15 15 15 15 14 14 14 12 11 13 8 4 2 4 8 6 9 8 8 8 7 6 2 2 2 5 4 3 5 6 6 6 8 8 5 11 6 7 7 8 13 13 10 8 11 14 18 26 24 22 19 25 17 26 25 36 26 22 30 30 19 21 20 17 13 12 11 12
22 23 22 22 21 21 20 19 19 18 18 16 16 15 14 13 12 12 13 14 15 14 14 15 14 13 14 12 10 11 3 3 4 6 5 9 8 9 9 8 7 6 5 5 4 4 4 7 7 8 5 9 9 2 8 12 9 8 8 13 14 10 8 8 20 27 21 27 24 20 15 26 14 12 32 29 32 24 20 18 29 26 23 18 13 11 11 12
23 23 22 22 21 22 21 20 19 18 17 16 15 15 14 13 12 12 12 13 14 13 13 14 13 13 11 10 11 5 5 11 8 4 6 10 9 9 9 8 8 4 3 4 7 6 10 7 5 8 8 10 5 3 8 5 11 9 14 15 17 7 10 7 18 20 27 24 27 19 25 23 17 19 16 21 31 21 23 18 19 22 19 20 18 15 12 12
24 23 23 22 22 22 21 20 19 19 17 16 15 14 13 13 12 12 12 12 12 12 13 13 12 12 11 8 7 3 4 9 7 4 8 11 10 9 9 9 8 7 6 6 4 5 5 6 8 6 6 5 7 12 10 14 9 15 12 8 13 9 15 14 20 20 25 24 22 23 23 22 23 21 16 21 22 14 10 13 13 15 16 14 13 14 13 13
24 24 23 23 23 22 22 20 19 18 17 16 15 14 13 12 12 13 12 12 11 12 12 13 11 12 12 6 3 5 6 12 4 10 10 10 12 9 10 8 9 6 4 6 4 7 3 7 4 5 6 4 4 12 12 6 9 15 21 7 9 14 17 13 19 15 20 26 26 30 22 31 29 28 10 26 14 14 11 11 12 11 12 12 13 10 12 13
25 25 24 23 24 22 21 20 19 18 17 16 15 13 12 12 12 13 13 12 11 11 12 11 9 9 10 3 5 9 5 9 13 6 11 12 10 10 12 7 6 4 3 7 3 3 3 6 10 5 5 6 7 7 6 5 12 18 20 10 6 13 19 21 20 19 23 25 27 27 33 19 27 28 16 18 13 12 11 10 13 13 11 10 13 14 14 13
25 25 24 24 24 23 21 21 20 18 17 16 15 14 13 12 12 13 13 12 11 11 11 9 8 4 6 4 6 6 7 10 8 8 10 11 11 8 9 6 8 5 4 4 9 7 3 6 6 6 4 6 4 5 6 7 8 8 14 6 15 25 28 24 24 21 25 26 31 34 30 26 30 27 22 15 11 12 12 14 15 13 14 14 13 12 10 11
25 25 24 25 24 23 21 22 20 18 17 17 16 15 13 12 12 12 13 12 12 11 9 7 6 4 4 6 6 10 10 8 5 9 12 12 10 10 5 9 10 6 4 8 6 9 7 11 4 7 5 3 2 6 4 10 8 6 13 20 28 27 30 24 28 20 18 22 34 39 29 29 19 8 16 6 11 12 15 16 11 13 15 12 11 10 9 11
26 25 26 25 25 23 22 21 21 19 18 18 16 15 12 12 12 12 12 12 12 10 9 7 4 4 5 4 8 5 9 8 5 8 12 13 11 6 8 8 9 6 8 13 8 14 10 10 7 5 8 7 5 9 12 8 10 24 29 25 23 18 27 23 25 24 27 20 23 33 26 23 20 18 24 15 13 14 20 16 14 13 13 14 13 11 9 10
26 26 26 25 25 24 22 21 21 20 19 18 16 14 12 12 12 12 12 11 10 10 9 7 6 3 4 8 7 12 9 9 8 11 12 9 8 12 11 10 11 10 7 7 9 8 10 6 6 6 7 3 6 7 16 8 17 19 31 29 19 21 33 28 28 21 25 26 26 35 30 21 14 20 20 18 16 17 18 16 14 14 13 13 11 11 9 9
27 26 25 26 26 24 22 21 21 21 20 17 16 16 14 12 12 11 11 9 10 9 8 5 5 3 5 11 11 14 8 7 11 9 5 6 8 9 10 7 9 9 9 6 8 8 7 6 3 6 4 6 4 11 9 13 12 17 21 30 20 23 20 14 14 17 25 33 23 11 18 12 17 19 13 17 19 21 19 17 12 12 13 12 9 11 9 6
26 26 26 27 25 22 22 22 22 21 20 16 19 18 16 13 11 11 10 10 9 7 6 5 2 3 5 10 14 8 10 10 5 4 8 8 5 12 11 9 11 11 6 8 10 11 8 6 5 3 3 3 7 6 15 11 8 22 12 13 22 19 17 15 17 15 13 20 16 25 25 14 9 10 14 15 20 23 20 16 15 15 14 11 8 7 7 5
26 27 26 26 23 21 23 23 23 19 18 19 18 20 18 15 9 11 10 7 8 9 7 5 2 5 9 17 9 13 8 8 11 12 13 10 14 10 12 12 14 10 9 9 9 3 3 6 5 6 8 3 4 9 8 10 12 11 19 9 9 13 12 13 11 16 24 14 26 34 21 18 17 17 19 16 17 23 23 16 15 12 12 12 11 10 10 7
27 27 26 24 22 23 23 24 21 21 20 21 20 23 18 11 8 9 13 8 12 12 9 2 3 4 4 11 7 12 6 4 9 14 10 14 12 13 13 12 8 9 7 8 6 5 6 7 11 7 7 8 17 14 13 17 12 12 15 7 9 7 13 14 11 8 20 21 9 18 22 22 16 17 17 11 14 19 21 19 14 10 13 13 12 11 9 9
25 26 26 22 25 24 25 24 22 23 21 22 24 20 13 10 9 9 8 9 10 7 4 6 4 3 6 10 8 6 9 10 7 4 5 14 13 12 5 7 8 9 9 7 9 4 8 5 6 7 12 12 7 12 15 13 9 8 8 12 4 12 10 12 13 12 11 19 14 26 33 18 20 26 19 12 16 16 18 16 17 15 13 12 12 12 10 8
24 24 22 24 27 26 24 24 23 24 22 24 19 15 21 15 18 18 13 9 9 9 8 7 4 7 15 9 7 7 5 11 9 9 7 8 13 5 6 8 3 4 7 9 8 7 8 5 11 5 8 9 8 10 14 5 11 8 9 13 7 4 12 12 19 11 15 18 24 9 18 17 22 21 19 16 13 17 20 19 18 16 13 13 14 13 11 10
24 25 25 28 27 26 24 24 24 24 22 25 18 18 17 15 9 4 9 6 7 10 11 7 11 7 9 8 12 14 10 10 6 3 6 5 4 5 5 3 6 3 5 8 10 5 10 6 11 12 7 9 7 10 10 9 12 14 11 12 10 13 13 12 12 6 19 16 19 20 22 22 23 20 17 14 14 17 23 18 21 15 18 13 10 11 11 11
26 26 25 26 28 27 25 25 24 23 21 16 19 16 17 21 19 12 12 5 5 9 13 10 8 9 9 14 13 11 7 7 7 6 7 6 5 5 5 5 5 11 5 8 9 5 8 11 4 5 7 9 7 9 8 8 11 10 10 11 15 14 6 3 6 10 14 17 12 16 21 24 25 24 19 15 15 17 18 17 20 16 19 18 17 11 11 11
27 27 27 25 26 26 26 25 25 21 12 4 7 15 11 9 7 12 15 17 10 9 9 13 13 14 15 9 9 10 13 7 4 6 7 4 6 4 9 8 10 7 8 6 8 8 12 10 7 11 13 8 7 8 11 11 13 12 12 12 5 3 12 8 10 13 15 15 4 12 20 22 24 22 19 15 17 21 23 20 21 25 21 23 17 15 13 10
29 28 29 28 26 26 25 25 25 20 10 6 14 12 6 3 6 10 5 16 18 10 10 14 8 11 13 16 10 6 7 7 10 10 9 2 6 5 6 8 4 10 7 4 9 15 11 4 7 9 8 7 7 9 10 10 11 7 10 7 12 6 6 4 5 9 9 19 10 15 20 19 20 22 19 23 27 31 26 27 28 26 25 22 21 17 15 13
28 28 29 29 28 28 27 26 22 15 11 13 11 5 6 11 8 7 5 7 13 12 8 7 3 7 10 8 5 8 3 5 5 8 6 4 6 4 5 6 7 9 6 7 10 5 6 11 11 6 8 12 9 9 13 12 11 12 9 8 8 8 11 8 7 8 6 13 19 13 14 13 15 19 24 25 28 27 24 25 25 25 27 26 26 22 22 19
28 28 28 28 30 30 29 28 18 8 11 3 7 7 8 6 6 8 5 8 9 13 8 11 3 6 7 6 6 5 4 6 5 5 6 6 3 4 7 3 6 8 4 6 11 12 10 6 4 8 11 13 9 6 11 10 5 4 9 6 7 4 6 12 9 9 7 17 19 16 14 13 15 19 18 18 17 11 14 16 15 17 18 16 16 14 18 22
28 28 28 29 29 31 31 23 10 9 11 2 2 5 9 5 5 4 8 11 8 12 6 6 5 3 6 5 3 5 3 4 9 6 6 4 5 7 3 5 8 7 7 8 11 9 6 5 4 6 8 8 11 8 6 14 4 5 6 10 9 8 10 6 12 9 11 7 12 24 12 15 12 20 27 22 17 14 14 19 18 19 16 18 20 19 15 14
28 28 27 28 28 31 27 6 7 13 7 6 7 12 8 6 6 4 17 8 5 12 12 7 5 7 7 6 5 6 7 7 5 7 4 6 7 5 7 11 7 4 5 8 8 9 6 7 10 8 11 8 8 6 5 9 11 6 11 10 8 8 9 12 9 9 5 10 17 9 15 13 8 18 23 22 20 18 15 21 21 18 20 22 22 21 21 20
28 28 26 25 24 27 13 4 6 9 5 10 10 12 12 8 4 7 10 14 8 7 5 10 6 12 12 5 5 7 12 10 12 5 3 6 5 4 5 8 11 5 4 8 14 7 4 8 10 10 12 10 8 10 5 12 13 6 8 10 8 8 8 13 15 15 12 5 6 8 10 13 16 23 20 16 21 18 20 22 20 19 20 22 22 22 20 20
28 28 26 23 24 12 4 7 10 6 5 8 10 11 10 8 6 12 16 8 15 9 8 11 6 6 8 7 6 6 9 4 11 8 3 5 5 8 10 4 5 6 8 12 6 11 3 5 6 8 8 9 6 5 5 8 10 10 5 11 7 7 10 13 18 15 8 11 6 9 4 10 10 14 7 16 19 16 23 25 23 20 20 20 21 22 20 18
28 28 25 21 23 12 4 3 3 5 8 7 10 11 12 7 12 15 12 12 11 12 13 7 10 5 12 10 7 4 5 5 9 8 5 3 6 7 5 3 5 6 4 8 12 5 7 5 6 11 9 5 7 5 11 10 5 5 9 11 12 10 11 11 10 10 4 8 9 10 7 15 15 11 7 10 19 22 26 27 25 22 23 23 21 18 17 16
29 26 23 19 14 4 3 2 7 9 8 8 10 10 5 9 11 10 9 6 12 8 7 10 10 9 6 9 6 9 4 6 8 8 7 7 9 8 5 3 7 7 7 8 9 12 6 8 11 9 6 8 7 6 7 8 5 7 11 10 11 16 10 8 12 10 11 5 13 10 7 11 11 11 18 22 29 34 27 19 17 17 17 19 20 23 22 20
30 28 21 13 6 4 4 9 10 5 6 8 10 8 9 17 12 9 5 12 7 9 11 8 8 8 8 8 12 8 4 5 6 5 5 10 5 9 8 6 14 13 11 13 4 13 9 6 5 7 5 7 6 8 8 8 5 9 8 5 10 11 15 12 10 11 10 10 10 6 7 7 13 12 13 22 13 21 28 25 24 23 23 24 21 21 20 18
30 29 22 12 9 5 7 7 6 8 10 9 9 10 13 7 13 9 6 6 12 11 4 7 4 7 7 5 4 7 10 10 4 5 5 6 4 6 5 10 4 7 9 4 5 10 3 5 7 9 6 5 4 7 14 13 12 13 9 16 11 9 13 7 13 8 6 10 3 3 5 6 13 19 13 17 20 17 24 28 30 29 26 21 19 20 19 17
30 28 23 6 8 3 9 10 9 9 8 9 10 10 11 12 5 8 5 7 7 4 8 3 7 7 7 8 7 7 4 7 8 4 5 4 5 4 6 3 7 9 9 5 3 12 10 9 9 8 9 5 9 6 8 9 9 8 7 8 10 5 7 5 7 6 10 13 10 5 6 8 12 16 12 15 19 20 21 24 27 28 27 25 24 22 20 18
30 25 14 6 13 13 10 4 6 8 9 9 10 13 16 12 5 9 5 5 3 3 4 7 11 8 5 9 7 6 10 4 5 6 6 4 10 4 5 7 5 8 11 3 10 5 8 11 11 5 7 7 6 9 12 9 4 5 5 10 13 15 12 7 9 8 9 11 9 7 8 14 3 9 5 11 13 10 16 23 24 25 27 26 24 22 20 17
31 17 8 6 6 13 18 14 8 2 8 9 18 14 9 7 5 5 4 5 8 5 5 5 5 6 8 8 6 8 8 8 7 4 9 6 5 8 9 3 4 11 7 11 7 6 2 12 15 8 7 6 6 4 8 9 9 5 6 11 12 9 15 5 13 9 6 4 5 6 13 9 13 7 8 5 10 11 9 14 15 14 14 19 20 22 20 18
16 13 2 8 7 7 9 9 4 4 9 14 13 11 6 11 5 6 6 5 3 6 10 10 8 11 6 9 6 14 8 6 10 9 7 5 7 6 4 5 6 6 9 8 8 4 9 6 6 14 6 5 4 5 6 11 9 8 5 3 6 8 17 12 6 3 5 11 11 5 15 13 17 8 5 9 13 8 10 14 16 16 18 21 23 22 20 20
17 16 11 10 9 11 6 6 8 8 14 17 13 4 9 7 8 6 6 2 3 4 7 9 11 6 8 10 9 16 14 9 7 8 7 4 5 8 6 4 4 5 6 18 4 6 9 12 10 8 7 8 5 4 5 6 13 14 9 10 6 7 10 12 8 8 9 6 15 3 7 12 11 14 10 7 10 6 9 15 18 17 20 23 22 23 24 23
15 10 7 8 11 10 6 6 11 13 12 11 5 7 4 4 5 4 1 4 4 6 9 6 10 6 6 7 12 10 13 9 14 9 3 5 9 5 4 6 9 6 5 4 14 5 9 8 8 3 5 13 9 7 9 5 4 12 9 9 12 10 6 10 10 6 4 8 12 9 4 10 10 13 7 5 10 8 9 10 16 17 20 24 22 21 20 19
7 6 8 9 12 8 6 9 16 11 9 15 4 7 5 7 3 2 6 8 4 7 6 3 4 6 4 4 5 5 8 12 9 5 5 7 9 7 4 5 6 9 9 8 12 5 9 6 13 7 7 8 7 10 7 11 11 5 5 8 4 13 8 6 12 9 12 6 3 12 6 11 12 11 11 10 11 15 13 12 20 24 25 23 22 23 24 24
11 8 6 7 11 11 6 12 11 14 14 7 6 7 8 3 4 3 3 4 4 8 4 2 1 3 6 2 2 5 7 6 5 9 5 6 8 5 12 8 8 6 9 9 8 4 4 6 5 13 8 7 8 8 5 8 5 9 8 8 7 8 7 10 5 6 9 12 10 9 12 14 14 13 10 13 14 18 22 23 18 20 21 22 22 25 24 24
7 10 6 8 15 14 11 18 18 9 7 7 3 6 3 6 4 3 5 5 3 4 6 4 7 4 5 6 10 3 7 5 7 8 6 4 7 7 9 7 5 5 6 10 11 7 7 5 7 12 16 8 10 9 3 7 8 12 15 13 13 7 6 4 15 7 5 9 12 8 18 17 20 6 11 11 11 14 17 20 21 17 17 17 17 20 24 23
8 7 7 9 15 10 9 11 10 3 7 4 8 7 7 4 4 3 2 3 4 3 5 9 2 4 3 2 3 4 8 6 5 4 6 7 7 8 5 7 6 3 8 4 2 3 8 8 6 10 10 12 13 12 9 10 7 8 10 6 8 7 12 9 7 11 5 7 9 8 6 15 14 6 8 11 9 13 15 13 17 15 16 16 20 23 23 27
14 8 11 12 11 7 12 7 5 10 5 10 7 4 4 4 4 4 5 4 4 5 4 5 3 5 4 4 2 4 3 7 2 4 3 2 4 4 9 10 5 9 8 4 4 4 8 11 7 10 14 12 11 6 5 12 10 8 9 5 5 8 7 12 13 12 10 4 5 6 10 19 12 4 7 7 8 9 12 15 15 13 13 16 19 18 19 16
8 10 16 11 9 11 19 8 9 11 10 12 5 6 4 4 3 4 3 3 4 6 3 3 3 3 3 2 4 6 2 7 4 4 7 3 3 5 9 10 7 7 6 6 8 6 9 8 8 7 15 18 14 14 14 13 15 9 7 8 3 5 5 4 8 4 6 10 11 10 18 12 13 8 9 6 4 7 10 11 15 16 12 14 14 14 14 13
11 9 10 18 16 14 9 9 6 6 6 7 8 9 10 5 3 3 4 2 2 3 5 4 4 3 3 3 4 2 2 7 6 6 3 3 5 5 8 10 8 6 2 5 7 5 7 5 6 5 7 9 12 9 10 11 11 15 7 10 5 4 4 10 6 5 7 7 6 10 15 18 17 11 7 5 8 9 6 8 7 14 18 17 12 14 15 17
12 9 15 16 19 15 11 4 9 6 6 8 7 7 2 5 4 5 4 2 2 3 3 4 3 4 3 5 5 5 5 3 5 7 10 8 8 10 5 10 7 4 5 10 5 8 5 4 6 10 13 15 16 12 9 3 7 8 12 9 16 6 7 7 11 7 11 9 8 13 11 10 14 11 10 11 7 8 12 8 11 14 14 15 16 19 19 21
7 11 9 14 16 13 7 9 8 10 11 5 7 5 3 3 6 7 3 4 3 5 4 3 2 4 4 4 2 3 3 4 6 4 3 4 5 5 9 7 6 7 8 6 6 11 7 5 4 6 8 11 11 9 6 5 6 7 6 10 11 13 9 4 7 15 10 10 16 14 9 8 13 10 11 12 11 10 11 12 13 11 14 17 19 19 16 16
10 4 5 5 6 10 11 11 14 14 11 3 9 2 2 3 4 4 6 3 2 3 5 7 3 2 4 5 6 4 5 5 4 4 4 3 4 8 7 6 5 9 7 3 5 9 8 6 5 3 4 7 7 9 6 5 5 7 8 8 11 12 11 11 10 11 9 12 20 10 9 9 10 10 11 13 13 15 16 20 18 18 13 10 11 14 17 18
6 6 3 6 7 6 7 12 12 8 14 5 7 8 8 3 5 9 8 7 5 4 5 5 5 6 4 4 4 4 3 5 6 4 5 3 2 4 6 5 3 8 5 4 7 4 10 5 5 4 4 5 7 7 6 5 7 9 9 10 11 8 12 11 13 10 14 12 14 14 10 16 16 14 14 18 15 15 12 10 7 6 11 15 15 17 18 18
9 6 10 10 6 7 6 6 7 8 11 9 6 7 10 4 4 11 5 6 6 5 2 4 5 3 4 8 6 6 9 9 8 8 5 3 7 3 5 8 5 4 4 2 2 3 9 10 6 2 5 7 8 7 4 5 5 11 10 10 11 10 10 11 9 10 8 10 12 15 13 18 18 17 21 19 10 5 7 11 13 11 12 16 17 19 19 21
4 4 5 7 12 9 7 6 8 10 9 14 12 11 11 6 7 9 10 6 6 6 5 5 6 4 3 4 3 6 8 11 10 9 11 10 9 11 9 11 6 4 4 3 3 4 4 7 5 4 5 10 7 4 8 6 5 7 14 17 17 11 12 9 13 13 8 12 11 6 9 17 17 9 8 10 9 8 12 13 11 12 15 19 21 21 21 21
5 5 6 7 6 7 7 6 6 7 5 6 8 11 13 12 10 9 12 8 5 6 10 6 6 8 3 2 7 11 10 12 14 13 13 14 7 5 7 8 13 9 7 8 3 7 9 8 6 3 5 11 11 4 5 6 11 17 16 15 10 7 7 12 13 8 15 9 5 8 16 12 12 6 8 10 7 9 8 12 13 12 16 20 21 21 23 24
Wind_Speed
16 15 15 14 15 15 14 13 13 12 12 11 11 10 10 9 10 11 11 12 12 12 12 12 12 11 11 11 11 10 11 2 1 0 1 7 4 5 6 7 7 5 3 1 2 3 1 4 5 5 3 4 1 2 1 1 1 2 2 6 1 2 1 4 4 6 2 6 3 2 2 5 3 1 2 3 8 7 6 6 6 10 9 8 7 8 8 7
17 17 16 16 15 14 15 14 13 12 12 11 11 10 10 9 9 10 11 11 12 12 12 12 12 11 10 10 10 9 6 2 1 0 8 2 6 6 6 8 7 5 5 2 3 3 2 3 2 4 3 2 2 1 0 1 1 3 2 2 4 3 4 5 3 6 7 1 4 4 5 3 3 6 2 4 1 2 5 5 5 8 9 8 9 8 8 7
17 16 16 15 15 15 15 15 14 13 12 11 11 10 9 9 10 10 11 11 12 11 12 12 11 10 9 8 8 8 4 1 0 1 2 3 7 7 7 7 6 4 1 1 1 3 2 1 0 2 3 2 4 2 2 0 1 2 3 1 2 7 4 1 5 8 2 12 9 7 4 2 6 1 2 4 4 3 4 4 5 6 6 7 7 7 7 8
18 17 17 16 16 16 17 15 14 13 12 12 11 10 10 10 10 10 10 11 11 11 11 12 10 9 9 8 6 5 0 1 1 2 2 4 7 7 7 7 6 5 3 3 2 2 3 5 4 4 2 4 2 1 2 2 2 2 3 2 2 3 2 2 3 6 8 12 10 4 3 3 0 0 2 5 8 1 0 0 3 8 9 7 7 7 7 8
19 18 17 17 17 18 17 15 13 13 12 12 11 10 10 10 10 10 9 10 10 10 11 11 10 9 8 6 8 1 2 3 1 2 3 5 8 8 7 7 6 3 2 3 3 4 6 4 2 3 2 1 1 1 1 1 1 4 4 6 4 3 1 3 5 10 10 3 7 5 6 3 1 4 3 3 2 4 2 1 7 4 6 7 7 7 7 8
19 19 18 17 18 17 16 15 14 13 12 11 11 10 10 10 10 10 10 9 9 10 10 10 9 9 7 5 2 0 2 3 1 1 5 8 8 7 7 7 6 5 4 3 2 2 3 3 3 2 1 2 3 3 2 1 2 3 1 3 2 3 5 1 9 7 6 6 5 6 1 3 3 2 4 5 5 3 4 5 8 7 6 4 5 6 7 7
19 19 19 19 19 18 16 15 14 13 12 11 11 10 10 10 10 10 9 8 8 9 10 10 8 8 10 3 0 2 2 3 1 6 7 7 6 8 7 6 7 4 3 2 2 0 1 2 1 1 3 2 1 2 3 1 0 3 1 1 4 4 8 5 8 8 6 9 5 2 7 7 3 5 5 5 4 5 6 6 7 7 6 4 5 6 6 5
20 20 19 19 19 18 17 15 15 13 12 12 11 10 10 10 10 10 9 8 8 9 10 8 7 7 8 0 1 4 2 3 2 4 5 10 7 8 9 4 4 2 2 0 1 0 2 2 1 2 1 3 1 3 0 2 1 3 2 2 3 3 6 8 8 9 9 6 5 9 9 5 7 4 2 4 3 5 6 6 6 6 5 5 6 7 6 5
20 20 20 20 19 18 17 16 14 13 12 12 11 10 10 10 10 10 10 9 9 9 8 7 6 2 1 1 2 2 3 2 4 3 8 8 6 6 5 1 1 2 1 1 1 1 1 1 0 3 1 0 2 0 1 1 1 2 2 3 4 6 7 8 12 8 8 5 7 15 11 7 7 4 4 2 5 4 5 5 5 6 6 5 5 5 4 4
20 20 20 20 19 19 17 16 15 14 13 12 11 11 10 10 10 10 10 9 9 7 5 5 5 3 1 2 2 5 2 6 2 6 8 9 6 6 3 3 4 3 0 1 2 1 0 1 1 1 3 0 1 3 1 5 1 3 9 11 12 6 9 5 9 5 5 4 3 9 7 0 2 3 2 1 4 0 3 5 5 4 5 4 4 6 4 4
21 20 21 21 20 19 17 16 15 14 13 12 12 11 10 10 10 10 10 10 8 5 3 3 4 2 1 2 3 1 4 3 3 4 8 10 8 5 3 2 4 2 1 0 2 5 3 1 1 1 0 1 2 5 7 0 7 14 17 16 13 11 10 7 7 7 3 4 6 4 5 2 6 3 2 4 2 1 3 5 4 4 5 3 3 5 5 4
21 21 20 20 20 19 18 16 15 14 13 12 12 11 10 10 10 10 9 8 7 3 2 1 1 1 2 3 3 1 1 2 1 5 6 6 4 7 7 6 6 4 3 3 4 4 5 2 3 0 1 0 1 4 6 2 10 11 20 13 11 8 8 3 3 0 2 3 6 3 5 5 6 1 1 3 2 2 2 3 3 4 4 2 3 6 5 4
20 19 20 20 20 19 17 17 16 15 14 12 11 11 10 9 9 9 8 6 5 3 1 2 4 1 1 5 4 8 2 1 1 6 4 1 0 2 3 4 6 6 5 2 4 2 5 4 1 2 1 2 0 2 3 5 6 11 8 14 10 8 3 3 3 1 3 3 5 2 1 6 3 1 1 2 2 1 2 1 1 3 3 2 3 6 4 3
19 19 19 20 20 18 17 18 17 16 13 12 11 11 11 9 8 7 6 6 3 1 2 3 1 1 1 3 5 3 4 1 2 2 1 1 1 4 0 3 4 4 2 4 5 3 3 4 3 1 1 1 3 1 9 3 4 8 4 6 7 9 6 4 1 2 5 4 1 1 4 6 4 1 3 4 2 1 2 1 1 2 1 3 4 3 1 1
18 19 19 20 19 16 18 18 18 15 14 11 11 11 10 9 7 6 3 3 2 3 3 2 0 1 3 5 5 8 3 2 1 3 4 2 1 4 4 2 0 5 5 6 1 1 2 4 2 2 1 0 2 5 3 3 3 2 7 2 3 4 5 4 4 2 4 2 4 6 2 6 4 1 3 4 1 3 3 3 3 5 4 4 2 2 1 1
18 18 19 18 16 18 18 19 17 17 15 13 10 11 9 6 4 2 5 2 4 5 2 1 1 2 0 2 1 3 3 1 3 1 3 4 4 5 3 2 4 1 0 3 1 1 3 4 5 0 1 2 10 7 7 7 1 3 6 4 3 2 6 1 7 5 6 2 0 3 3 1 7 3 4 4 5 3 3 3 4 5 4 3 1 1 1 1
18 18 18 15 19 19 20 19 17 18 17 16 10 4 3 4 7 7 5 4 3 2 0 0 0 0 2 3 1 2 2 3 4 1 2 2 5 4 1 4 1 4 4 2 4 3 4 2 2 1 6 6 3 6 7 4 1 1 2 4 1 6 3 2 1 4 2 4 1 1 3 6 2 3 5 3 5 4 5 2 3 3 1 1 1 0 1 0
17 18 17 19 20 21 19 19 18 19 17 18 7 5 7 10 12 11 6 4 1 1 1 1 1 2 4 3 1 3 1 6 4 3 2 0 4 1 1 0 1 2 4 2 4 3 3 0 3 3 3 4 3 4 4 2 5 4 4 5 3 2 8 5 7 5 5 2 3 0 2 3 3 3 4 4 6 7 5 2 1 1 3 1 2 3 2 1
18 20 20 21 20 20 19 18 18 18 16 8 13 10 11 9 1 2 4 0 1 3 2 1 3 1 2 5 5 6 3 7 3 1 1 2 1 1 2 1 4 1 1 3 2 2 3 2 4 5 3 3 1 3 2 4 7 9 7 6 6 7 6 5 6 1 9 3 3 2 3 7 2 2 4 4 6 8 5 2 2 1 2 0 3 3 2 1
21 20 20 21 21 20 20 19 17 16 15 2 2 2 3 7 6 1 5 2 1 2 1 4 1 2 4 6 5 5 4 2 1 2 2 1 3 1 1 1 2 6 2 1 4 2 1 6 2 2 2 3 2 4 2 4 6 7 6 6 9 8 2 1 1 2 6 6 0 2 2 0 2 4 7 6 6 5 4 4 6 5 3 3 3 4 3 1
20 19 18 18 20 19 20 19 19 16 10 1 1 6 3 0 2 3 6 7 4 1 2 4 4 4 5 3 3 4 5 4 1 1 1 0 3 1 2 3 5 3 3 0 1 2 4 4 2 6 3 1 2 4 8 7 4 5 8 8 1 1 7 2 3 4 1 2 2 1 1 0 3 3 6 6 7 8 7 5 4 5 5 5 6 7 5 2
22 20 19 20 18 19 20 20 19 16 7 1 7 4 2 1 1 1 1 4 5 4 4 4 3 4 4 5 4 4 4 1 4 1 3 0 3 2 3 4 2 2 1 1 3 7 5 1 1 3 2 3 5 6 4 6 5 3 5 5 7 2 1 3 3 3 0 5 2 1 3 0 1 2 4 5 4 1 3 3 3 5 9 6 8 10 3 3
22 21 20 20 19 19 19 18 15 11 5 6 4 3 1 3 1 2 2 0 4 2 1 0 1 4 5 4 1 4 1 1 2 3 1 1 2 2 1 2 3 2 1 2 3 1 2 3 5 2 5 6 4 4 8 7 6 6 4 3 3 3 5 1 1 4 4 2 5 3 4 2 0 2 4 5 6 1 4 4 5 8 10 10 3 1 3 4
21 22 21 20 20 20 18 18 11 4 4 1 5 3 0 2 1 1 2 1 3 7 2 3 1 1 3 1 1 2 1 2 1 3 2 2 1 1 2 1 2 2 1 1 7 4 4 1 0 4 1 5 5 1 6 4 3 2 2 3 4 3 3 6 4 3 2 8 6 8 4 1 3 6 6 5 4 1 2 4 5 7 9 5 4 3 4 6
21 21 20 21 20 20 21 12 5 2 1 0 0 1 0 1 0 1 2 2 1 3 3 1 2 1 1 1 1 1 1 1 5 2 2 2 1 1 0 0 2 2 0 2 5 4 3 3 0 3 3 4 5 3 3 8 1 2 3 4 3 3 7 4 8 5 4 2 2 2 1 3 3 8 7 4 4 8 2 5 7 9 10 6 8 8 4 5
20 20 20 20 21 22 16 2 1 1 1 0 0 1 1 1 1 2 6 3 1 3 5 1 0 0 1 1 2 1 3 1 1 1 1 2 4 1 1 1 1 2 2 1 3 2 2 2 1 4 6 5 5 1 1 2 4 2 2 5 3 3 6 8 7 5 1 2 6 1 2 3 2 4 7 5 7 10 4 6 8 8 10 8 9 8 6 6
21 20 19 19 18 20 3 0 1 0 2 1 2 3 4 4 1 3 1 4 2 1 1 2 1 1 0 1 1 2 2 2 5 0 0 1 0 1 1 3 2 1 1 2 4 1 0 2 5 4 7 4 3 1 2 6 6 0 2 6 4 4 6 6 7 4 2 0 3 3 3 0 4 7 4 8 7 7 9 11 8 9 10 11 10 8 6 6
21 20 18 18 17 8 1 0 3 1 1 1 3 4 4 1 2 3 4 2 0 3 2 3 0 2 1 3 3 2 3 1 3 1 0 2 1 2 4 1 2 0 0 3 1 3 1 1 1 3 4 3 2 2 4 4 3 2 1 5 4 4 3 4 5 4 1 5 1 3 1 1 3 5 4 8 6 8 12 13 13 12 11 12 11 11 9 6
21 20 18 16 16 3 1 1 2 0 1 3 4 4 2 4 6 5 3 1 2 0 1 1 1 1 6 4 2 2 1 1 2 2 3 1 4 1 1 2 2 4 1 2 4 1 2 1 2 5 4 1 3 2 6 7 1 1 5 7 7 6 6 4 5 6 1 2 3 5 2 2 6 5 3 0 4 8 12 15 16 14 12 11 12 10 7 4
21 19 17 14 7 1 1 0 2 2 3 4 4 1 2 3 2 1 2 1 1 1 0 3 2 3 3 4 2 5 2 2 2 3 3 1 5 4 1 2 3 3 2 4 2 5 2 5 5 2 0 1 2 1 3 2 1 4 5 6 4 8 5 3 6 3 5 0 5 5 5 5 3 4 6 7 8 12 13 7 7 9 10 11 12 12 9 7
21 20 17 9 1 1 1 2 2 2 4 4 2 3 2 7 2 3 0 2 1 2 2 3 2 4 4 4 4 3 1 1 3 1 1 4 1 5 1 1 5 5 4 6 0 6 5 1 1 1 2 1 3 2 3 1 2 4 1 2 5 3 6 5 4 5 3 3 2 1 4 5 5 4 5 11 6 5 10 11 12 13 15 15 13 12 11 9
21 20 16 4 3 0 1 1 1 2 4 3 4 4 4 2 4 1 1 3 0 3 2 3 1 1 4 1 1 3 3 4 2 2 1 1 1 3 2 4 0 2 3 2 1 5 1 1 1 6 1 4 1 4 1 5 4 5 4 7 4 2 3 1 5 1 1 3 1 0 2 2 6 9 5 7 13 11 7 10 11 13 14 14 13 13 11 9
22 19 13 1 3 0 4 1 2 4 4 3 4 3 2 4 0 2 1 2 1 1 1 1 2 3 4 1 3 3 2 1 4 1 2 0 1 2 1 0 3 2 1 2 1 4 4 3 4 5 2 1 0 2 1 1 4 3 2 3 4 1 1 1 2 1 4 5 2 1 1 1 4 8 7 9 12 12 10 9 10 8 12 14 14 11 9 9
22 15 3 2 5 4 4 2 3 4 3 4 3 3 7 3 0 5 1 1 0 1 2 2 4 3 3 3 3 2 3 1 2 2 3 1 3 0 1 1 1 3 5 2 0 1 1 3 3 1 0 2 2 1 4 4 2 1 2 3 4 6 2 1 3 2 4 4 2 3 1 4 1 2 1 6 5 6 7 8 7 5 3 1 2 3 4 5
21 5 2 1 1 4 6 3 2 1 3 3 9 5 3 2 1 1 1 1 2 1 0 2 1 2 3 3 3 3 0 1 3 2 5 2 1 0 0 0 3 6 2 2 1 2 0 4 7 3 2 1 3 0 2 3 5 0 2 4 4 3 6 1 3 2 1 0 1 1 3 3 4 2 4 3 4 3 4 6 4 7 2 6 7 9 10 9
10 4 0 2 3 3 1 1 1 2 2 4 4 4 1 3 1 2 0 1 0 1 4 2 4 5 2 3 2 3 5 0 5 2 3 2 1 1 1 1 0 0 1 1 3 1 1 0 2 8 1 1 1 1 0 2 1 2 0 1 2 2 8 5 1 1 1 3 3 0 6 5 8 3 2 6 3 4 3 1 3 5 3 5 7 8 8 8
7 7 5 5 4 7 2 1 1 3 7 7 6 0 2 1 4 4 3 0 0 2 2 2 3 1 2 3 2 5 3 2 2 2 1 1 1 1 2 2 3 0 2 5 1 2 1 4 4 3 1 0 0 1 3 3 3 4 0 3 2 2 4 4 1 2 4 1 5 1 2 6 5 3 4 3 3 3 3 2 2 0 2 6 7 8 9 10
5 3 1 2 3 6 1 0 1 6 5 4 1 2 1 1 1 1 0 2 0 3 3 2 1 3 1 0 3 3 7 3 7 3 1 1 1 1 1 0 1 2 1 1 2 1 2 2 2 1 2 8 5 1 4 2 2 2 3 2 1 2 1 3 3 1 0 2 3 3 1 4 4 5 3 3 2 4 3 2 1 3 4 7 6 5 4 4
1 1 2 3 3 3 3 1 8 4 2 7 1 2 1 2 2 0 4 5 1 2 2 1 1 1 1 0 2 1 2 2 2 2 1 1 1 1 0 2 0 2 1 4 4 1 1 1 3 2 0 4 3 3 1 3 4 3 2 2 0 2 2 1 3 3 4 1 1 5 2 3 5 4 4 5 6 5 2 3 7 9 10 8 7 7 8 9
4 2 2 2 6 6 2 2 4 7 5 3 2 2 1 1 0 0 0 0 1 2 0 1 0 0 1 0 1 1 2 1 1 0 1 1 1 1 1 3 0 3 6 3 4 0 0 1 0 3 3 1 1 1 2 2 0 2 2 2 1 2 2 3 1 1 3 4 4 2 3 4 6 7 4 6 7 8 9 10 9 9 9 8 6 7 8 9
0 3 1 3 9 8 2 9 8 4 3 1 1 1 1 0 1 0 3 2 1 2 2 2 3 0 2 1 1 1 1 0 0 1 0 1 1 0 1 1 2 2 1 3 6 0 2 1 1 3 6 2 4 3 2 4 4 3 4 1 4 2 1 1 6 2 2 2 3 3 6 7 10 2 6 5 5 5 9 8 8 8 8 8 7 6 7 8
2 2 2 4 9 5 2 5 2 0 2 1 1 1 1 1 1 2 1 1 3 1 2 3 0 2 1 1 1 0 0 1 0 1 0 1 1 2 1 4 1 0 1 0 1 2 2 2 2 1 1 4 6 6 3 2 3 2 4 1 3 3 5 4 1 3 1 0 4 3 0 6 6 2 3 6 4 6 7 6 7 7 8 8 7 5 5 6
6 0 4 5 5 2 5 3 2 3 1 1 4 1 1 0 1 1 0 1 1 1 1 1 1 1 2 1 0 0 0 0 0 1 1 1 1 2 4 8 2 3 4 0 0 1 4 3 2 3 6 6 4 1 4 5 5 4 3 1 1 1 0 3 2 4 3 0 1 1 1 5 5 1 3 4 5 5 4 6 10 6 4 5 6 6 7 7
2 3 6 3 4 5 7 1 2 5 3 5 2 2 3 1 1 1 1 1 0 1 0 0 1 1 0 1 1 0 0 0 1 1 0 0 0 1 4 5 2 1 1 2 1 2 1 1 2 2 3 6 4 3 3 3 5 2 1 2 1 2 3 1 4 0 0 5 6 5 7 2 2 3 5 3 2 2 4 5 5 7 6 5 6 6 6 5
1 2 2 8 8 6 3 3 3 1 2 3 3 3 3 1 0 1 1 0 1 1 1 0 0 1 0 0 0 0 0 1 1 2 0 0 1 2 6 8 4 2 1 3 0 1 2 2 2 0 1 2 3 2 4 2 2 3 0 2 2 2 2 1 1 1 2 1 3 2 4 9 9 6 5 3 5 6 3 4 4 5 6 7 6 7 8 7
3 1 5 5 7 6 4 1 3 1 1 3 2 1 0 1 0 2 3 0 1 1 1 1 1 2 1 1 1 2 2 2 1 1 1 1 2 2 2 7 5 1 3 7 3 4 2 1 1 5 6 7 8 5 4 1 1 1 3 1 1 1 2 4 4 3 4 3 4 6 5 5 9 7 6 7 5 5 8 2 5 7 7 7 6 6 8 10
1 4 1 4 6 6 2 4 2 2 1 0 1 1 2 0 2 2 1 0 0 0 0 1 0 0 1 2 0 0 1 1 4 0 0 1 2 2 5 1 4 3 3 2 3 4 2 0 2 3 5 7 6 5 1 3 2 3 2 3 2 1 3 2 3 4 4 5 7 4 5 4 8 7 6 8 8 6 6 6 5 7 9 9 8 5 5 5
2 1 2 2 2 2 2 3 6 3 1 1 2 0 1 1 2 0 2 0 0 0 1 1 1 0 2 2 3 1 1 1 2 1 2 1 2 5 3 3 3 6 4 1 2 1 2 1 1 2 3 5 4 6 1 0 3 3 3 4 5 3 3 4 4 6 6 4 9 4 4 4 6 6 7 7 8 7 6 7 5 2 1 4 4 6 9 10
2 1 1 1 0 2 2 3 2 1 2 1 1 3 2 1 1 1 1 2 1 0 1 0 2 1 2 1 1 1 1 1 2 1 2 1 0 1 1 3 1 5 3 2 3 1 2 1 1 1 1 3 4 5 3 3 2 2 4 6 7 5 6 6 6 4 9 7 8 8 6 10 8 8 9 11 6 4 5 4 5 4 5 4 5 6 9 9
2 1 1 4 3 1 1 3 1 3 0 3 1 1 0 1 2 4 2 1 1 1 0 1 3 1 1 3 3 1 5 5 3 3 2 2 1 1 2 4 1 1 2 0 1 1 1 2 3 1 1 3 4 3 1 1 0 4 6 6 7 7 6 5 3 3 4 5 7 8 6 9 9 11 13 12 6 4 5 7 9 7 4 4 6 7 8 9
1 1 2 2 1 2 1 2 2 2 1 4 3 1 2 1 0 1 4 2 3 2 2 3 3 3 1 3 1 3 5 6 7 6 7 6 4 5 3 4 3 1 1 0 0 1 1 2 2 2 1 4 3 3 2 2 1 3 8 11 11 7 6 4 4 6 4 5 2 0 2 6 7 3 5 6 5 5 7 8 7 7 5 4 6 9 10 12
1 1 2 2 0 1 1 1 1 0 1 0 0 2 0 2 2 2 2 3 2 4 3 3 4 4 0 1 4 7 7 7 9 8 7 8 2 2 4 1 7 3 2 2 0 2 2 4 1 0 1 4 5 2 3 4 6 9 9 6 6 4 4 2 2 2 5 3 1 3 6 6 4 1 5 6 4 5 5 8 8 8 6 8 10 11 11 11
Wind_Direction
348 348 347 347 346 344 343 341 337 335 330 329 327 325 321 315 308 300 294 294 295 294 299 303 307 309 313 320 325 339 338 47 8 38 354 239 198 180 152 91 99 117 111 73 27 75 351 14 20 344 51 66 326 67 277 42 58 55 69 111 66 197 132 213 175 187 158 140 205 184 166 137 121 128 162 76 48 75 73 68 70 75 70 73 78 75 82 81
346 346 346 346 345 343 342 340 338 333 332 328 327 322 318 312 306 299 294 293 294 295 298 302 301 306 315 319 327 343 344 47 321 2 236 194 137 151 121 111 115 140 114 48 96 93 76 355 2 36 59 63 307 76 314 210 63 105 144 95 197 194 239 167 184 158 129 180 146 167 148 169 152 141 196 86 118 135 94 49 83 94 77 73 59 67 71 56
344 342 343 341 339 339 342 340 337 335 331 328 322 320 315 309 305 300 296 293 292 296 299 295 300 307 311 317 327 344 346 330 12 4 327 180 149 142 127 132 144 152 99 148 233 109 91 151 195 80 10 88 354 136 63 261 113 224 128 224 245 207 245 212 167 170 156 142 146 151 194 121 161 82 113 125 134 64 92 115 96 111 113 83 81 60 58 64
344 343 343 337 336 340 342 340 337 332 330 324 319 314 311 308 303 299 295 292 292 297 294 292 297 303 311 315 340 329 291 50 44 282 275 188 152 145 145 147 114 95 98 65 152 110 112 81 60 92 58 67 311 25 116 231 119 249 88 152 227 198 188 310 203 140 148 141 144 145 119 108 282 100 89 155 104 35 245 276 168 151 142 109 89 71 55 64
345 344 340 337 337 340 341 338 332 331 326 320 316 311 310 306 302 295 291 291 293 292 288 288 294 303 308 321 328 6 33 56 312 235 248 170 153 152 149 135 117 91 93 148 69 44 63 78 79 39 87 146 354 29 249 260 184 106 184 188 161 159 79 280 153 137 140 97 121 115 117 173 18 52 79 31 103 178 215 356 105 118 122 122 113 89 74 73
345 343 340 336 339 341 338 335 333 328 323 317 312 310 308 305 297 293 291 291 293 285 282 284 294 306 315 318 322 127 75 64 253 287 182 178 151 149 132 112 109 101 86 42 93 49 65 12 57 33 20 83 176 136 266 159 138 198 335 231 234 195 131 180 127 131 123 124 119 122 123 82 52 62 25 36 45 45 68 101 98 117 108 104 90 95 95 85
345 342 339 338 340 339 337 333 331 325 320 317 311 309 304 301 298 294 292 293 286 283 279 284 302 314 321 352 128 73 100 256 333 253 170 161 135 115 109 97 90 83 80 65 23 67 53 63 76 190 94 64 281 186 264 194 222 146 194 166 214 170 129 135 118 108 89 111 122 109 76 57 73 85 349 65 53 63 68 86 93 99 93 96 99 97 95 93
345 343 340 337 339 336 333 331 329 322 318 313 310 304 304 301 299 296 294 292 284 277 278 291 302 321 351 6 26 350 40 350 262 261 141 93 89 101 95 70 88 83 72 285 130 32 104 81 119 154 79 103 220 148 67 80 43 161 193 220 121 63 101 99 96 90 90 75 91 75 68 60 64 84 97 58 46 71 69 77 86 93 101 91 96 92 89 88
344 342 339 338 336 334 331 328 325 320 317 311 306 304 300 299 297 294 291 286 280 275 284 292 304 8 110 56 95 42 348 241 221 136 117 102 111 103 134 101 117 106 129 79 249 201 158 275 351 173 330 332 169 52 316 156 315 186 189 89 81 82 89 100 86 84 91 89 87 85 86 92 93 138 54 9 12 80 92 79 90 98 88 90 97 92 98 93
345 343 339 337 335 333 330 325 321 319 315 308 304 301 296 294 291 288 285 282 279 288 290 294 300 339 7 69 34 68 262 245 167 121 120 114 98 89 62 132 119 104 52 337 94 114 357 248 154 200 127 133 146 13 199 71 224 116 80 85 85 62 84 41 102 82 80 67 18 112 115 101 283 109 238 283 341 237 99 101 94 93 93 86 110 105 86 103
344 343 340 337 334 332 327 324 320 316 311 306 303 299 294 288 284 282 280 279 290 304 302 279 304 346 14 74 89 92 256 33 56 113 129 128 115 110 226 152 142 122 159 313 226 184 224 252 209 73 58 243 101 3 55 274 107 103 100 77 64 69 59 67 78 115 124 47 60 74 117 98 10 64 208 176 329 260 150 120 112 116 112 99 105 115 103 91
343 342 340 337 334 330 325 321 318 313 310 305 298 295 289 281 279 276 278 284 294 309 287 251 132 90 72 69 127 197 123 188 74 125 138 134 157 194 190 174 160 166 157 287 259 222 190 207 121 69 312 239 52 101 56 43 92 108 105 87 84 66 73 10 84 343 317 120 168 158 56 16 7 359 117 155 347 286 151 135 101 95 111 111 103 108 83 80
342 340 340 337 334 330 322 321 316 313 308 302 298 294 290 279 274 272 270 287 285 259 259 170 133 119 92 18 236 236 270 245 164 118 107 107 108 184 172 165 175 177 192 195 262 218 200 177 151 9 204 104 54 56 189 79 93 82 53 113 88 76 33 288 348 36 73 169 142 33 75 279 287 267 190 163 228 139 95 144 94 56 58 34 44 85 63 59
341 339 339 337 333 326 324 320 317 312 304 300 301 294 287 277 267 264 255 237 341 133 179 138 145 83 69 255 272 244 286 187 114 88 218 129 6 284 242 180 203 199 215 215 261 212 217 209 155 208 116 54 101 80 68 9 352 97 91 27 108 121 175 227 236 312 126 176 78 97 143 263 264 209 173 183 205 119 163 36 329 31 19 39 25 76 97 38
339 339 339 338 330 327 327 322 316 311 312 306 309 295 283 271 261 241 223 202 247 141 129 88 3 50 33 282 259 289 205 94 38 244 190 134 176 326 300 352 197 200 195 196 195 169 153 110 117 38 288 345 69 76 32 44 355 61 79 62 343 109 203 232 254 170 142 231 292 51 84 222 258 208 132 170 140 82 42 25 356 19 23 31 11 159 239 327
339 338 340 336 331 333 327 324 318 320 319 319 312 302 281 260 235 149 150 133 158 122 110 5 353 84 104 348 239 330 49 17 306 256 241 148 149 215 244 347 313 54 94 253 320 151 41 87 66 189 253 33 52 89 80 90 18 4 100 168 164 77 168 178 251 186 236 76 56 79 202 315 287 178 96 36 111 112 75 66 41 40 3 333 331 343 326 54
338 337 337 334 339 335 332 327 321 327 330 325 323 298 41 119 113 101 99 100 97 131 4 188 59 187 62 243 301 24 301 273 284 344 40 196 163 195 43 3 357 333 357 18 16 99 350 72 317 25 35 101 138 91 75 26 7 357 19 130 198 141 145 219 325 196 197 121 239 332 177 219 348 102 107 76 138 151 87 75 133 126 139 316 314 267 233 218
338 341 338 339 340 338 332 330 326 331 339 331 335 152 96 114 124 104 61 32 57 153 262 209 114 45 307 359 21 288 260 288 301 239 190 286 164 99 120 342 290 42 38 22 356 69 330 306 34 185 15 9 33 53 99 205 179 168 103 100 74 111 178 178 155 229 129 39 189 50 229 248 313 87 106 142 127 98 83 85 275 281 112 19 283 223 206 206
341 344 342 341 341 339 335 330 331 333 345 344 64 95 115 123 122 66 95 343 31 352 28 319 23 65 194 269 285 272 282 223 258 338 285 102 62 121 73 107 58 18 360 54 294 61 353 56 27 35 24 348 129 134 156 201 141 144 148 141 138 146 196 200 227 275 145 104 112 195 206 205 207 154 127 150 123 117 129 149 158 326 355 44 276 264 247 179
342 342 342 339 339 340 337 333 330 334 346 15 1 81 18 17 3 337 336 34 115 197 215 237 84 251 294 288 285 266 251 77 346 292 320 315 151 110 71 71 4 49 75 18 307 43 39 77 86 155 205 216 234 178 183 171 128 111 90 128 157 171 246 168 170 177 133 94 327 242 332 303 198 180 165 133 124 120 147 185 193 184 215 229 254 260 249 187
340 339 339 337 336 336 337 334 332 331 342 297 74 63 65 206 45 321 319 284 259 235 216 250 201 203 238 286 287 11 11 328 67 298 295 69 64 66 290 22 21 29 331 243 161 312 65 52 325 231 224 165 188 142 111 78 56 121 119 133 135 190 171 224 165 164 91 112 278 90 83 236 192 160 173 136 167 193 187 215 217 198 222 218 223 241 238 190
340 338 337 338 334 336 334 333 331 330 323 261 68 89 121 149 202 211 96 323 319 240 229 270 0 293 310 257 254 122 97 338 340 301 302 99 321 70 303 83 69 308 303 321 20 19 36 139 275 251 187 105 86 106 91 115 108 39 130 150 126 209 229 17 68 147 88 76 230 132 141 203 155 187 181 172 205 145 213 247 255 194 220 225 227 220 198 186
341 338 337 335 335 334 334 327 328 330 11 39 52 74 55 291 27 269 124 136 279 273 216 265 259 265 298 271 281 115 69 274 275 303 340 55 357 27 190 39 27 359 3 47 113 72 21 299 256 263 129 94 50 74 98 77 64 108 94 101 170 215 109 205 352 169 356 125 188 139 71 12 60 246 237 203 213 229 181 210 242 218 221 223 261 3 200 218
339 339 336 335 332 334 327 326 308 8 35 83 101 111 232 341 25 80 93 230 302 311 207 227 184 207 258 1 251 111 136 262 88 302 303 84 69 226 67 143 64 43 4 39 130 133 190 212 155 96 54 118 110 65 106 97 104 351 125 131 135 149 215 147 190 112 42 29 102 110 69 328 216 219 227 226 182 203 162 169 246 253 256 272 281 266 218 220
337 338 337 333 332 329 323 326 44 334 208 76 320 235 247 316 103 166 110 350 16 295 263 310 114 238 252 313 16 315 249 292 221 236 285 104 121 26 126 141 98 347 216 152 88 65 324 267 182 58 76 54 109 122 169 129 69 328 228 173 188 166 121 116 120 116 26 11 262 132 49 292 232 219 224 209 196 230 187 184 227 248 257 253 254 241 224 227
337 337 337 334 332 328 310 37 342 352 24 108 68 23 304 360 115 144 95 75 342 267 345 194 210 18 154 299 27 155 63 313 236 244 143 237 146 145 34 12 97 27 155 123 151 174 186 5 121 150 101 74 58 115 211 102 153 85 266 182 165 148 132 138 147 90 91 146 228 163 138 271 318 245 205 189 206 230 221 218 222 234 248 248 246 245 222 218
336 336 336 334 332 330 22 177 270 187 35 313 297 325 337 339 141 105 35 1 46 260 337 245 51 278 151 270 92 51 33 268 300 49 78 341 249 14 90 290 5 48 141 156 44 187 20 343 34 41 77 74 64 62 205 132 103 339 234 142 120 121 142 173 159 145 190 355 39 71 93 145 321 279 209 174 198 225 233 239 234 224 230 240 243 242 234 219
333 334 335 333 329 337 158 69 12 61 212 256 346 349 335 309 115 50 78 70 342 293 24 313 293 301 34 311 96 190 215 281 27 291 99 300 73 347 79 194 140 200 346 69 173 257 122 346 93 59 64 82 140 217 163 134 115 225 134 137 141 166 195 150 131 117 137 109 341 307 315 8 265 262 327 162 189 225 233 233 235 229 223 228 237 239 233 214
331 333 334 333 326 4 102 111 109 216 293 304 329 337 333 64 86 104 108 103 245 77 139 98 285 20 326 358 58 13 317 359 167 255 326 9 56 179 62 220 148 129 27 119 180 270 284 157 250 138 116 129 244 230 169 147 122 215 125 82 74 73 65 96 105 105 15 80 251 234 184 197 279 283 359 17 207 235 232 228 228 224 221 221 227 236 231 208
329 331 333 329 329 168 9 72 203 239 313 320 329 326 54 50 34 42 22 206 345 46 292 265 26 288 25 21 309 356 36 312 199 316 39 135 339 35 55 127 117 72 12 355 96 201 284 306 157 67 165 210 152 29 174 192 67 141 92 66 34 50 43 37 65 95 63 23 253 223 209 169 271 266 198 145 209 208 226 228 228 226 226 226 222 219 213 201
328 327 329 337 250 212 126 359 260 288 304 321 340 59 70 41 112 97 89 233 17 272 356 15 324 8 24 40 338 308 5 349 324 34 247 4 341 33 35 74 37 54 34 5 57 333 354 354 129 226 130 116 103 97 45 58 66 106 73 103 51 356 18 33 349 37 92 261 260 244 188 151 202 293 268 237 265 242 208 213 202 202 211 217 217 215 207 193
327 325 324 317 232 311 154 278 236 326 339 330 51 60 77 248 11 90 226 312 69 290 69 290 315 24 348 333 131 309 314 329 335 30 84 1 31 23 13 147 146 40 355 341 231 344 27 82 299 318 197 149 248 99 326 12 19 72 71 38 102 248 36 293 10 336 196 192 208 110 147 83 236 227 235 245 242 252 232 225 217 199 207 210 213 212 203 189
325 326 323 165 175 243 250 242 355 357 345 40 68 48 60 95 193 270 325 318 257 221 310 147 264 4 306 28 334 310 298 24 297 44 108 333 97 351 229 143 193 142 175 251 312 18 282 290 355 304 25 45 133 119 308 29 353 68 121 115 79 55 40 239 281 236 313 299 259 334 266 252 248 290 230 227 246 243 241 236 235 212 204 201 204 202 193 190
321 327 349 191 201 237 261 290 324 330 29 39 75 34 51 66 261 219 294 251 299 354 36 27 327 2 39 86 316 355 23 253 45 306 48 349 49 174 356 7 37 20 75 127 84 187 56 344 305 8 245 322 80 154 181 170 118 90 132 128 182 147 154 236 200 216 218 205 287 290 62 231 112 233 194 223 248 278 267 258 260 254 230 126 144 163 176 182
318 319 170 355 259 256 249 265 251 122 79 67 52 85 125 240 221 188 250 305 294 295 120 338 32 41 336 9 298 330 145 299 18 16 22 48 325 336 140 317 355 106 113 91 283 71 219 215 256 252 259 4 49 108 124 83 68 318 166 100 76 245 139 144 212 150 268 332 359 230 215 188 178 256 282 299 305 326 288 264 258 254 185 133 151 173 187 190
339 341 88 354 12 317 86 222 143 81 80 57 73 48 115 186 64 182 143 179 24 31 305 13 53 53 305 312 306 8 308 120 336 72 10 60 206 326 258 231 340 161 135 115 189 158 19 359 290 326 316 90 49 218 40 119 322 260 89 242 234 143 97 93 59 32 97 50 257 174 321 296 301 335 328 334 4 334 357 331 241 237 182 148 174 183 186 189
13 326 44 323 352 334 333 152 88 72 60 88 93 82 205 276 195 163 246 155 257 126 51 94 324 77 339 324 285 334 309 40 348 59 319 291 310 325 332 305 199 108 192 131 299 179 140 246 293 51 18 319 53 123 80 30 137 77 22 233 173 125 124 122 205 346 57 141 260 31 245 303 31 281 323 351 336 301 337 332 308 314 149 191 199 187 189 191
356 358 249 22 315 314 348 77 49 44 76 80 79 234 233 69 192 166 206 97 10 40 91 89 300 89 264 111 327 326 320 86 316 45 128 356 160 232 323 255 330 102 251 236 116 296 109 3 300 305 236 277 341 98 14 352 23 254 246 206 74 276 313 327 86 348 251 286 286 320 284 254 184 250 343 299 259 270 275 301 251 216 209 219 210 200 181 161
52 55 35 297 321 345 298 80 64 65 63 55 296 53 262 241 251 166 210 134 99 116 76 228 141 308 134 132 248 310 331 42 305 46 68 309 86 133 76 169 327 100 85 144 64 157 31 157 297 288 223 321 1 64 220 302 329 17 108 36 202 109 163 142 194 173 122 252 64 288 40 249 213 222 199 247 234 235 224 254 232 221 217 214 208 188 185 189
27 44 338 293 340 351 327 68 55 44 65 91 211 214 231 280 289 285 161 157 305 91 240 144 221 76 356 251 140 359 328 98 115 271 106 270 117 348 20 336 211 334 35 77 115 289 106 109 144 277 300 345 347 346 174 164 330 335 29 326 359 33 212 99 27 87 189 175 178 203 320 282 260 212 180 232 229 217 193 208 222 224 226 224 215 195 195 197
85 99 267 297 351 332 52 44 47 39 89 248 143 241 339 263 330 305 355 66 110 293 154 186 160 125 208 35 336 219 294 29 7 37 168 327 114 11 349 348 310 346 28 31 60 25 81 29 228 304 6 1 236 244 172 171 170 169 170 204 175 122 167 209 271 18 75 113 225 127 244 267 272 177 213 231 236 216 223 211 216 227 228 223 218 207 198 203
53 44 280 321 350 16 74 47 4 265 93 86 5 175 318 28 70 315 10 342 101 127 39 107 190 123 132 206 215 323 102 4 351 82 282 119 260 131 277 59 354 217 109 108 153 251 142 156 90 315 223 267 267 280 289 226 138 169 128 213 156 122 99 103 159 276 22 321 111 158 87 277 243 231 233 247 241 233 232 218 235 229 226 222 221 215 214 214
43 196 261 329 338 63 63 58 295 32 10 243 296 274 239 357 138 266 88 360 12 93 29 47 192 116 237 175 271 327 160 15 96 344 254 255 254 215 291 335 265 34 83 333 37 280 98 53 29 301 315 299 313 314 53 68 96 65 17 47 103 62 143 168 171 181 138 113 345 329 238 247 285 278 274 264 262 255 240 209 223 239 240 235 220 213 208 208
298 304 324 303 11 82 76 93 341 319 298 316 33 273 286 194 121 15 7 313 110 344 151 194 341 172 272 96 116 211 219 52 256 83 3 259 337 221 350 9 293 112 95 215 123 253 59 292 119 9 2 339 342 350 14 338 49 77 333 312 24 83 55 143 100 22 149 221 172 131 247 291 270 323 311 335 327 249 236 239 213 230 236 221 219 219 213 207
237 268 253 302 345 52 116 185 147 199 298 333 338 20 347 11 294 164 161 278 107 147 93 308 220 154 27 170 52 94 343 128 274 324 255 212 249 325 342 18 335 103 207 207 151 84 78 185 113 145 247 326 309 304 274 290 269 267 189 355 3 81 145 356 170 31 164 280 131 167 258 252 279 316 329 332 341 321 260 224 246 231 228 219 218 214 209 198
31 52 311 336 8 25 64 55 96 133 17 347 35 314 127 358 343 285 152 348 146 108 133 184 13 89 57 27 15 1 345 349 78 284 52 318 312 327 288 336 33 64 87 77 62 67 143 85 108 156 154 194 212 216 257 125 11 1 276 42 279 70 53 98 97 103 209 209 194 236 194 287 304 305 311 300 315 278 291 269 221 240 243 239 226 217 206 204
155 73 6 339 341 38 76 13 31 60 54 136 67 314 342 275 259 340 144 89 307 133 31 66 337 43 289 72 200 58 322 328 348 43 326 263 257 258 307 331 314 22 6 114 48 85 68 17 252 147 202 209 197 211 202 169 224 248 305 281 179 205 166 143 163 228 180 86 281 258 212 200 258 269 276 283 279 274 265 267 243 229 232 226 227 225 224 222
53 233 108 182 124 293 24 326 29 337 334 57 246 285 289 357 6 358 324 61 117 43 120 332 52 52 185 188 136 103 354 10 357 294 326 226 347 337 0 345 28 310 339 30 5 117 140 193 272 118 263 235 217 236 221 328 203 224 221 267 287 183 147 173 229 207 148 201 229 251 174 199 256 240 244 248 247 239 244 256 267 278 225 204 201 205 208 211
112 224 166 275 79 243 174 295 337 326 355 164 247 43 2 29 348 241 197 318 22 337 99 246 286 263 227 205 119 167 169 56 312 301 196 278 184 336 347 328 287 10 58 31 22 140 88 267 207 138 292 315 284 250 257 205 272 306 257 247 248 237 224 208 239 202 185 220 226 238 197 227 242 260 254 256 258 241 259 267 300 261 221 200 209 220 216 209
356 71 303 2 87 70 312 7 22 31 59 326 80 332 101 276 311 330 326 158 333 304 60 129 249 260 186 159 130 132 214 187 183 234 243 155 297 152 241 192 194 352 40 127 36 329 114 277 103 81 46 290 282 312 291 148 82 279 276 269 260 249 260 233 207 245 199 268 272 266 266 276 261 240 253 264 281 292 303 276 253 254 260 199 198 212 221 218
183 165 149 91 28 307 357 26 36 40 18 345 64 290 32 315 331 9 269 225 190 206 193 207 204 121 84 110 124 241 233 195 185 208 190 160 207 225 151 282 157 231 14 51 48 336 46 261 56 75 315 303 305 0 330 354 252 234 270 273 264 251 257 217 181 213 158 221 218 159 285 262 270 284 270 277 286 280 260 267 268 254 228 214 214 222 215 214
48 326 82 108 104 329 46 349 14 49 6 240 320 281 203 267 266 28 325 288 249 244 196 187 184 120 61 111 241 233 229 189 205 212 187 204 195 177 203 191 165 168 208 169 256 142 169 125 174 77 232 260 266 42 357 1 2 326 290 247 228 219 204 248 268 207 216 174 198 227 233 222 236 351 348 307 292 264 268 257 264 271 240 208 217 224 224 219